INTELSAT 906 (IS-906)

Last updated on Thu Nov 21 2024 00:02:40 GMT+0000 (Coordinated Universal Time)

1 27513U 02041A 24324.95063682 .00000014 00000+0 00000+0 0 9992 2 27513 4.3355 79.9782 0006289 175.4805 210.3982 1.00272914 81276
UTC large
Height (km)
Speed (km/s)
/
Latitude / Longitude
Inclination (degrees)
Orbital Period (minutes)
Azimuth
Elevation
Range (km)
Doppler Factor

Next 0 passes for location: London (51.5072 / 0.1276)

Sorry there are no passes over London.